Location: Lima
(44.6384°N, 112.5920°W)
Time: 23:09:59
(UTC+00:00)

STRAND 1 - Visible Passes

Search period start: 18 April 2024 00:00
Search period end: 28 April 2024 00:00
Orbit: 764 x 779 km, 98.4° (Epoch: 18 April)

Date Brightness Start Highest point End Pass type
(mag) Time Alt. Az. Time Alt. Az. Time Alt. Az.
18 Apr ? 04:05:51 10° NW 04:06:08 10° NW 04:06:25 10° WNW visible
18 Apr ? 12:02:02 10° ESE 12:06:16 27° ENE 12:10:30 10° N visible
19 Apr ? 03:28:13 10° NNW 03:31:48 20° WNW 03:35:22 10° WSW visible
19 Apr ? 11:29:07 10° E 11:31:49 15° ENE 11:34:31 10° NNE visible
20 Apr ? 02:52:36 10° N 02:57:16 37° WNW 03:01:55 10° SW visible
21 Apr ? 03:59:18 10° NW 04:00:48 11° NW 04:02:18 10° WNW visible
21 Apr ? 11:56:49 10° ESE 12:00:53 25° ENE 12:04:58 10° N visible
22 Apr ? 03:22:38 10° NNW 03:26:25 22° WNW 03:30:14 10° WSW visible
22 Apr ? 11:24:09 10° E 11:26:28 13° ENE 11:28:46 10° NNE visible
24 Apr ? 03:53:21 10° NNW 03:55:26 13° WNW 03:57:32 10° W visible
24 Apr ? 11:51:36 10° ESE 11:55:29 23° ENE 11:59:23 10° NNE visible
25 Apr ? 03:17:01 10° NNW 03:21:02 24° WNW 03:25:02 10° WSW visible
25 Apr ? 11:19:17 10° ENE 11:21:06 12° NE 11:22:55 10° NE visible
27 Apr ? 03:47:32 10° NNW 03:50:04 14° WNW 03:52:36 10° W visible
27 Apr ? 11:46:24 10° ESE 11:50:05 21° ENE 11:53:47 10° NNE visible
